• Processing (Info)

  • MPEC 2005-F07 : 2005 EE224

    The following Minor Planet Electronic Circular may be linked-to from your own Web pages, but must not otherwise be redistributed electronically.

    A form allowing access to any MPEC is at the bottom of this page.


    Read MPEC 2005-F06 Read MPEC 2005-F08


    M.P.E.C. 2005-F07                                Issued 2005 Mar. 16, 13:20 UT
    
         The Minor Planet Electronic Circulars contain information on unusual
             minor planets and routine data on comets.  They are published
       on behalf of Commission 20 of the International Astronomical Union by the
              Minor Planet Center, Smithsonian Astrophysical Observatory,
                              Cambridge, MA 02138, U.S.A.
    
                      Supported in part by the Brinson Foundation
                 Prepared using the Tamkin Foundation Computer Network
    
                                  MPC@CFA.HARVARD.EDU
              URL http://cfa-www.harvard.edu/iau/mpc.html  ISSN 1523-6714
    
                                      2005 EE224
    
    Observations:
         K05EM4E* C2005 03 15.42045 11 30 36.76 +51 12 03.3          18.7 R EF007G96
         K05EM4E  C2005 03 15.42649 11 30 35.40 +51 11 56.7          19.1 R EF007G96
         K05EM4E  C2005 03 15.43255 11 30 34.04 +51 11 50.1          18.7 R EF007G96
         K05EM4E  C2005 03 15.43859 11 30 32.66 +51 11 43.5          19.0 R EF007G96
         K05EM4E  C2005 03 15.45148 11 30 29.73 +51 11 29.8          18.6 R EF007G96
         K05EM4E  C2005 03 15.45888 11 30 28.04 +51 11 21.6          18.9 R EF007G96
         K05EM4E  C2005 03 15.46630 11 30 26.37 +51 11 13.4          18.8 R EF007G96
         K05EM4E  C2005 03 15.47371 11 30 24.71 +51 11 05.2          18.9 R EF007G96
         K05EM4E  C2005 03 16.04815 11 28 19.72 +51 00 55.9          19.4 R EF007118
         K05EM4E  C2005 03 16.04931 11 28 19.41 +51 00 53.9                 EF007118
         K05EM4E  C2005 03 16.05045 11 28 19.19 +51 00 53.2                 EF007118
         K05EM4E  C2005 03 16.05160 11 28 18.92 +51 00 51.6          19.4 R EF007118
         K05EM4E  C2005 03 16.05392 11 28 18.33 +51 00 48.8          19.5 R EF007118
         K05EM4E  C2005 03 16.05508 11 28 18.14 +51 00 47.3                 EF007118
         K05EM4E  C2005 03 16.05624 11 28 17.88 +51 00 46.6                 EF007118
         K05EM4E  C2005 03 16.22852 11 27 42.04 +50 57 43.5          19.6 R EF007854
         K05EM4E  C2005 03 16.23232 11 27 41.05 +50 57 39.7          19.6 R EF007854
         K05EM4E  C2005 03 16.23612 11 27 40.18 +50 57 35.6          19.8 R EF007854
         K05EM4E  C2005 03 16.29863 11 27 25.56 +50 56 27.0          19.0 R EF007G96
         K05EM4E  C2005 03 16.31165 11 27 22.52 +50 56 12.2          19.0 R EF007G96
         K05EM4E  C2005 03 16.31796 11 27 21.04 +50 56 05.3          19.2 R EF007G96
    
    Observer details:
    118 Modra.  Observers J. Vilagi, L. Kornos.  0.6-m f/5.5 reflector + CCD.
    854 Sabino Canyon Observatory, Tucson.  Observer J. E. McGaha.  0.36-m f/10.0
        Schmidt-Cassegrain + CCD.
    G96 Mt. Lemmon Survey.  Observer E. C. Beshore.  Measurers E. C. Beshore,
        C. M. Casey, E. J. Christensen, G. J. Garradd, R. E. Hill, S. M. Larson,
        R. H. McNaught.  1.5-m reflector + CCD.
    
    Orbital elements:
    2005 EE224
    Epoch 2005 Mar. 11.0 TT = JDT 2453440.5                 MPC
    M 330.86692              (2000.0)            P               Q
    n   0.41934797     Peri.  207.78638     -0.68695241     +0.71597849
    a   1.7677453      Node    19.69272     -0.57932871     -0.43622628
    e   0.3851222      Incl.   21.66114     -0.43871932     -0.54505178
    P   2.35           H   19.7           G   0.15
    From 21 observations 2005 Mar. 15-16.
    
    Ephemeris:
    2005 EE224               a,e,i = 1.77, 0.39, 22                  q = 1.0869
    Date    TT    R. A. (2000) Decl.     Delta      r     Elong.  Phase     V
    2005 03 11    11 46.06   +52 08.3    0.388    1.283   131.4    35.5    19.6
    2005 03 21    11 09.81   +49 04.1    0.335    1.237   129.5    38.4    19.3
    2005 03 31    10 33.52   +42 06.8    0.293    1.195   125.9    42.7    19.1
    2005 04 10    10 04.65   +30 54.8    0.264    1.158   120.3    48.4    18.9
    2005 04 20    09 45.87   +16 22.0    0.251    1.127   113.2    55.0    19.0
    2005 04 30    09 35.79   +00 35.9    0.255    1.105   105.9    61.2    19.1
    2005 05 10    09 32.28   -14 09.9    0.275    1.091   100.0    65.7    19.4
    2005 05 20    09 33.89   -26 48.2    0.305    1.087    96.0    67.8    19.7
    2005 05 30    09 39.87   -37 16.2    0.341    1.092    94.1    67.8    19.9
    2005 06 09    09 50.63   -45 58.9    0.379    1.107    93.8    66.2    20.2
    2005 06 19    10 07.67   -53 26.1    0.418    1.130    94.7    63.6    20.3
    2005 06 29    10 33.75   -59 57.1    0.456    1.161    96.6    60.4    20.5
    2005 07 09    11 14.14   -65 36.8    0.495    1.199    99.1    56.9    20.6
    2005 07 19    12 16.81   -70 08.4    0.535    1.242   101.8    53.2    20.8
    2005 07 29    13 47.21   -72 41.6    0.578    1.288   104.6    49.7    20.9
    2005 08 08    15 31.12   -72 20.3    0.627    1.338   106.9    46.5    21.1
    2005 08 18    16 59.14   -69 15.8    0.685    1.390   108.4    43.7    21.3
    2005 08 28    18 02.07   -64 36.0    0.754    1.443   109.0    41.4    21.5
    2005 09 07    18 46.98   -59 19.1    0.834    1.497   108.4    39.7    21.8
    2005 09 17    19 21.18   -53 58.4    0.927    1.551   106.7    38.4    22.0
    
    Timothy B. Spahr             (C) Copyright 2005 MPC           M.P.E.C. 2005-F07
    

    Read MPEC 2005-F06 Read MPEC 2005-F08


    MPEC number:

    Enter an MPEC number in one of the following forms:

    • 1997-B01 (the full form)
    • J97B01 (the packed version of the full form)
    • B01 (the abbreviated form)